Terminal Aerodrome Forecast
Issued by NWS

Home | Current Version | Previous Version | Graphics & Text | Print | Product List | Glossary On
Versions: 1 2 3 4 5 6 7 8 9 10 11 12 13 14 15
000
FTUS43 KOAX 140500
TAFCDR
TAF
KCDR 140533Z 1406/1506 01007KT P6SM SCT025 BKN060
     FM141400 30015G25KT P6SM SCT050
     FM150100 30008KT P6SM SCT050=

USA.gov is the U.S. government's official web portal to all federal, state and local government web resources and services.